Погода в Дугласе

Великобритания     54°09′01″N   4°28′51″W
темп.,
°C
ветер,
м/с
пор.,
м/с
влажн.,
%
обл.,
%
осадки,
мм/ч
давл.,
гПа
погр.,
м
27 января, ср
ср2700:00+7зюз5129496 0.0 1008473
03:00+7з5129596 0.0 1009451
06:00+6з379698 0.0 1009245
09:00+6з239688 0.0 100972
12:00+8зсз128994 0.0 1011167
15:00+8юв119097 0.0 100949
18:00+6юв239599 0.0 1008118
21:00+6вюв61096100 2.0 1008508
28 января, чт
чт2800:00+6вюв101595100 6.1 1004721
03:00+5вюв91496100 6.6 999608
06:00+6вюв4598100 13.7 997189
09:00+8зсз3996100 2.5 998467
12:00+8сз149389 2.6 1000335
15:00+8ююз269387 0.0 999389
18:00+7юв129894 1.9 99753
21:00+8ю2499100 2.3 995172
29 января, пт
пт2900:00+7зюз399469 2.5 995338
03:00+7зюз399552 0.4 994465
06:00+5зсз129758 0.5 99327
09:00+6с239845 0.0 99696
12:00+7с358762 0.0 1000515
15:00+6св358861 0.0 1002413
18:00+5всв469459 0.0 1002272
21:00+5вюв81388100 0.0 1002687
30 января, сб
сб3000:00+5вюв101487100 0.0 1000901
03:00+4вюв101583100 0.1 997912
06:00+3в111585100 0.3 9961011
09:00+3в111786100 0.9 9971078
12:00+2в111680100 2.0 9991133
15:00+3в91472100 0.1 10011245
18:00+2в81369100 0.1 10051085
21:00+2в8127086 0.0 10071012
31 января, вс
вс3100:00+2вюв7117248 0.0 1008933
03:00+2вюв711751 0.0 1007843
06:00+2юв7127518 0.0 1005919
09:00+2юв81368100 0.0 1003962
12:00+2юв91561100 0.0 10011033
15:00+3юв91461100 0.0 997954
18:00+3юв91572100 0.0 996837
21:00+2юв91479100 0.0 995771